Tracking 19193 objects as of 23-Jun-2018
HD Live streaming from Space Station
objects crossing your sky now

FENGYUN 1C DEB

Track FENGYUN 1C DEB now!
10-day predictions


NORAD ID: 36659
Int'l Code: 1999-025DYD
Perigee: 854.3 km
Apogee: 1,064.0 km
Inclination: 99.8 °
Period: 104.1 minutes
Semi major axis: 7330 km
RCS: 0.0079 m2 (small)
Launch date: May 10, 1999
Source: People's Republic of China (PRC)
Launch site: Taiyaun Space Center, China (TSC)

Note: This is SATELLITE DEBRIS
aabbcc
Your satellite tracking list
Your tracking list is empty




NASA's NSSDC Master Catalog

Two Line Element Set (TLE):
1 36659U 99025DYD 18165.38660651  .00000108  00000-0  13066-3 0  9998
2 36659  99.8387  16.2224 0143038  64.5499 297.0343 13.83361443549695
Source of the keplerian elements: AFSPC